User: anonymous   Login
Location: Unspecified
(0.0000°N, 0.0000°E)
Time: 08:57:02
(UTC+00:00)
Language:

DSP F5R - Orbit

View from above orbital plane
View from above orbital plane
View from above satellite
View from above satellite

Ground track
Ground track

The orbit data is extracted from the following two-line orbital elements,

1 18583U 87097A   17084.52056497 0.00000000  00000-0  00000-0 0    07
2 18583  14.4733   3.8263 0024821 196.1622 163.7706  0.98382228    07
Epoch (UTC): 25 March 2017 12:29:36
Eccentricity: 0.0024821
inclination: 14.4733°
perigee height: 36218 km
apogee height: 36430 km
right ascension of ascending node: 3.8263°
argument of perigee: 196.1622°
revolutions per day: 0.98382228
mean anomaly at epoch: 163.7706°
orbit number at epoch: 0

The dashed part of the orbit path shows where the satellite is in the earth's shadow,  

DLR